,,,PA_Meas_PMT16A,,PR_Meas_QMR101_102,,RH_Meas_QMH101,,SR_Meas_QMS101,,TA_Meas_QMH101,,GenWind,,GenWind,
date,time,status,PA,status,PR,status,RH,status,SR,status,TA,status,DirAvg,status,SpdAvg,
2009-01-08, 00:00:04,VALID,1011.15,VALID,0,VALID,95.5659,VALID,0,VALID,23.9278,VALID,206,VALID,0,
2009-01-08, 00:01:04,VALID,1011.14,VALID,0,VALID,95.5507,VALID,0,VALID,23.8889,VALID,113,VALID,0,
2009-01-08, 00:02:04,VALID,1011.12,VALID,0,VALID,95.5583,VALID,0,VALID,23.9278,VALID,97,VALID,0,
2009-01-08, 00:03:04,VALID,1011.09,VALID,0,VALID,95.5583,VALID,0,VALID,23.9084,VALID,89,VALID,0,
2009-01-08, 00:04:04,VALID,1011.08,VALID,0,VALID,95.5659,VALID,0,VALID,23.9084,VALID,84,VALID,0,
2009-01-08, 00:05:04,VALID,1011.05,VALID,0,VALID,95.5583,VALID,0,VALID,23.9278,VALID,84,VALID,0,
2009-01-08, 00:06:04,VALID,1011.05,VALID,0,VALID,95.5278,VALID,0,VALID,23.9278,VALID,83,VALID,0,
2009-01-08, 00:07:04,VALID,1011.06,VALID,0,VALID,95.5431,VALID,0,VALID,23.9084,VALID,16,VALID,0,
2009-01-08, 00:08:04,VALID,1011.03,VALID,0,VALID,95.5431,VALID,0,VALID,23.9084,VALID,5,VALID,0,
2009-01-08, 00:09:04,VALID,1011,VALID,0,VALID,95.5278,VALID,0,VALID,23.9473,VALID,5,VALID,0,
2009-01-08, 00:10:04,VALID,1010.99,VALID,0,VALID,95.5507,VALID,0.105969,VALID,23.8871,VALID,5,VALID,0,
2009-01-08, 00:11:04,VALID,1010.98,VALID,0,VALID,95.5431,VALID,0.105969,VALID,23.8676,VALID,5,VALID,0,
2009-01-08, 00:12:04,VALID,1010.95,VALID,0,VALID,95.5354,VALID,0.105969,VALID,23.8481,VALID,5,VALID,0,
2009-01-08, 00:13:04,VALID,1010.96,VALID,0,VALID,95.5126,VALID,0.105969,VALID,23.8286,VALID,5,VALID,0,
2009-01-08, 00:14:04,VALID,1010.91,VALID,0,VALID,95.5278,VALID,0.105969,VALID,23.8286,VALID,5,VALID,0,
2009-01-08, 00:15:04,VALID,1010.86,VALID,0,VALID,95.5049,VALID,0.105969,VALID,23.8286,VALID,5,VALID,0,
2009-01-08, 00:16:04,VALID,1010.84,VALID,0,VALID,95.5278,VALID,0.105969,VALID,23.7896,VALID,5,VALID,0,
2009-01-08, 00:17:04,VALID,1010.82,VALID,0,VALID,95.5431,VALID,0.105969,VALID,23.7896,VALID,5,VALID,0,
2009-01-08, 00:18:04,VALID,1010.77,VALID,0,VALID,95.5354,VALID,0,VALID,23.7896,VALID,5,VALID,0,
2009-01-08, 00:19:04,VALID,1010.76,VALID,0,VALID,95.5354,VALID,0.105969,VALID,23.7896,VALID,5,VALID,0,
2009-01-08, 00:20:04,VALID,1010.73,VALID,0,VALID,95.5431,VALID,0.105969,VALID,23.7683,VALID,5,VALID,0,
2009-01-08, 00:21:04,VALID,1010.7,VALID,0,VALID,95.5354,VALID,0.105969,VALID,23.7701,VALID,5,VALID,0,
2009-01-08, 00:22:04,VALID,1010.65,VALID,0,VALID,95.5507,VALID,0.105969,VALID,23.7896,VALID,5,VALID,0,
2009-01-08, 00:23:04,VALID,1010.59,VALID,0,VALID,95.5278,VALID,0.105969,VALID,23.7489,VALID,5,VALID,0,
2009-01-08, 00:24:04,VALID,1010.57,VALID,0,VALID,95.5507,VALID,0.105969,VALID,23.7701,VALID,5,VALID,0,
2009-01-08, 00:25:04,VALID,1010.54,VALID,0,VALID,95.5583,VALID,0,VALID,23.7507,VALID,5,VALID,0,
2009-01-08, 00:26:04,VALID,1010.52,VALID,0,VALID,95.5507,VALID,0.105969,VALID,23.7701,VALID,5,VALID,0,
2009-01-08, 00:27:04,VALID,1010.52,VALID,0,VALID,95.5431,VALID,0.105969,VALID,23.7507,VALID,5,VALID,0,
2009-01-08, 00:28:04,VALID,1010.48,VALID,0,VALID,95.5583,VALID,0.105969,VALID,23.7312,VALID,5,VALID,0,
2009-01-08, 00:29:04,VALID,1010.44,VALID,0,VALID,95.5507,VALID,0.105969,VALID,23.7099,VALID,5,VALID,0,
2009-01-08, 00:30:04,VALID,1010.44,VALID,0,VALID,95.5583,VALID,0.105969,VALID,23.7312,VALID,5,VALID,0,
2009-01-08, 00:31:04,VALID,1010.4,VALID,0,VALID,95.5507,VALID,0.105969,VALID,23.7507,VALID,5,VALID,0,
2009-01-08, 00:32:04,VALID,1010.37,VALID,0,VALID,95.5812,VALID,0.105969,VALID,23.7117,VALID,5,VALID,0,
2009-01-08, 00:33:04,VALID,1010.37,VALID,0,VALID,95.5507,VALID,0.105969,VALID,23.7117,VALID,5,VALID,0,
2009-01-08, 00:34:04,VALID,1010.33,VALID,0,VALID,95.5812,VALID,0.105969,VALID,23.6904,VALID,5,VALID,0,
2009-01-08, 00:35:04,VALID,1010.29,VALID,0,VALID,95.5812,VALID,0.105969,VALID,23.7117,VALID,5,VALID,0,
2009-01-08, 00:36:04,VALID,1010.26,VALID,0,VALID,95.5736,VALID,0.105969,VALID,23.7117,VALID,5,VALID,0,
2009-01-08, 00:37:04,VALID,1010.23,VALID,0,VALID,95.5583,VALID,0.105969,VALID,23.6904,VALID,34,VALID,0,
2009-01-08, 00:38:04,VALID,1010.18,VALID,0,VALID,95.6041,VALID,0.105969,VALID,23.6727,VALID,68,VALID,0,
2009-01-08, 00:39:04,VALID,1010.14,VALID,0,VALID,95.5964,VALID,0.105969,VALID,23.6904,VALID,67,VALID,0,
2009-01-08, 00:40:04,VALID,1010.13,VALID,0,VALID,95.5812,VALID,0,VALID,23.7135,VALID,67,VALID,0,
2009-01-08, 00:41:04,VALID,1010.05,VALID,0,VALID,95.5888,VALID,0,VALID,23.6745,VALID,66,VALID,0,
2009-01-08, 00:42:04,VALID,1010.06,VALID,0,VALID,95.6117,VALID,0,VALID,23.6745,VALID,63,VALID,0,
2009-01-08, 00:43:04,VALID,1009.98,VALID,0,VALID,95.6041,VALID,0,VALID,23.6745,VALID,62,VALID,0,
2009-01-08, 00:44:04,VALID,1009.98,VALID,0,VALID,95.6041,VALID,0,VALID,23.655,VALID,61,VALID,0,
2009-01-08, 00:45:04,VALID,1009.94,VALID,0,VALID,95.6193,VALID,0,VALID,23.6338,VALID,66,VALID,0,
2009-01-08, 00:46:04,VALID,1009.93,VALID,0,VALID,95.6193,VALID,0,VALID,23.6356,VALID,54,VALID,0,
2009-01-08, 00:47:04,VALID,1009.89,VALID,0,VALID,95.6193,VALID,0,VALID,23.6356,VALID,81,VALID,0,
2009-01-08, 00:48:04,VALID,1009.86,VALID,0,VALID,95.6269,VALID,0,VALID,23.6356,VALID,56,VALID,0.520312,
2009-01-08, 00:49:04,VALID,1009.84,VALID,0,VALID,95.6422,VALID,0,VALID,23.5753,VALID,68,VALID,0.498828,
2009-01-08, 00:50:04,VALID,1009.79,VALID,0,VALID,95.6498,VALID,0,VALID,23.6161,VALID,66,VALID,0.312891,
2009-01-08, 00:51:04,VALID,1009.76,VALID,0,VALID,95.6269,VALID,0,VALID,23.6161,VALID,65,VALID,0.297656,
2009-01-08, 00:52:04,VALID,1009.74,VALID,0,VALID,95.6346,VALID,0,VALID,23.6161,VALID,56,VALID,0,
2009-01-08, 00:53:04,VALID,1009.72,VALID,0,VALID,95.6498,VALID,0,VALID,23.6161,VALID,56,VALID,0,
2009-01-08, 00:54:04,VALID,1009.7,VALID,0,VALID,95.6346,VALID,0,VALID,23.6161,VALID,56,VALID,0,
2009-01-08, 00:55:04,VALID,1009.7,VALID,0,VALID,95.6346,VALID,0,VALID,23.6161,VALID,56,VALID,0,
2009-01-08, 00:56:04,VALID,1009.7,VALID,0,VALID,95.6422,VALID,0,VALID,23.6356,VALID,54,VALID,0,
2009-01-08, 00:57:04,VALID,1009.67,VALID,0,VALID,95.6727,VALID,0,VALID,23.6143,VALID,44,VALID,0,
2009-01-08, 00:58:04,VALID,1009.65,VALID,0,VALID,95.6651,VALID,0,VALID,23.6161,VALID,45,VALID,0,
2009-01-08, 00:59:04,VALID,1009.61,VALID,0,VALID,95.6651,VALID,0,VALID,23.5966,VALID,63,VALID,0,
2009-01-08, 01:00:04,VALID,1009.6,VALID,0,VALID,95.688,VALID,0,VALID,23.5966,VALID,69,VALID,0,
2009-01-08, 01:01:04,VALID,1009.6,VALID,0,VALID,95.6651,VALID,0,VALID,23.5771,VALID,77,VALID,0,
2009-01-08, 01:02:04,VALID,1009.57,VALID,0,VALID,95.6727,VALID,0,VALID,23.5771,VALID,77,VALID,0,
2009-01-08, 01:03:04,VALID,1009.54,VALID,0,VALID,95.6727,VALID,0,VALID,23.5558,VALID,75,VALID,0,
2009-01-08, 01:04:04,VALID,1009.53,VALID,0,VALID,95.6727,VALID,0,VALID,23.5771,VALID,65,VALID,0,
2009-01-08, 01:05:04,VALID,1009.5,VALID,0,VALID,95.688,VALID,0,VALID,23.5771,VALID,61,VALID,0,
2009-01-08, 01:06:04,VALID,1009.49,VALID,0,VALID,95.6803,VALID,0,VALID,23.5771,VALID,61,VALID,0,
2009-01-08, 01:07:04,VALID,1009.46,VALID,0,VALID,95.6803,VALID,0,VALID,23.5966,VALID,61,VALID,0,
2009-01-08, 01:08:04,VALID,1009.45,VALID,0,VALID,95.7108,VALID,0,VALID,23.5966,VALID,61,VALID,0,
2009-01-08, 01:09:04,VALID,1009.44,VALID,0,VALID,95.6956,VALID,0,VALID,23.5966,VALID,62,VALID,0,
2009-01-08, 01:10:04,VALID,1009.43,VALID,0,VALID,95.688,VALID,0,VALID,23.5558,VALID,81,VALID,0,
2009-01-08, 01:11:04,VALID,1009.41,VALID,0,VALID,95.6956,VALID,0,VALID,23.5966,VALID,77,VALID,0,
2009-01-08, 01:12:04,VALID,1009.4,VALID,0,VALID,95.6956,VALID,0,VALID,23.5966,VALID,77,VALID,0,
2009-01-08, 01:13:04,VALID,1009.38,VALID,0,VALID,95.7032,VALID,0,VALID,23.5966,VALID,75,VALID,0,
2009-01-08, 01:14:04,VALID,1009.39,VALID,0,VALID,95.7185,VALID,0,VALID,23.6356,VALID,88,VALID,0,
2009-01-08, 01:15:04,VALID,1009.39,VALID,0,VALID,95.7185,VALID,0,VALID,23.5948,VALID,87,VALID,0,
2009-01-08, 01:16:04,VALID,1009.39,VALID,0,VALID,95.7032,VALID,0,VALID,23.5948,VALID,87,VALID,0,
2009-01-08, 01:17:04,VALID,1009.37,VALID,0,VALID,95.7108,VALID,0,VALID,23.6161,VALID,87,VALID,0,
2009-01-08, 01:18:04,VALID,1009.37,VALID,0,VALID,95.688,VALID,0,VALID,23.6161,VALID,87,VALID,0,
2009-01-08, 01:19:04,VALID,1009.37,VALID,0,VALID,95.7185,VALID,0,VALID,23.5966,VALID,75,VALID,0,
2009-01-08, 01:20:04,VALID,1009.39,VALID,0,VALID,95.7108,VALID,0,VALID,23.5771,VALID,56,VALID,0,
2009-01-08, 01:21:04,VALID,1009.38,VALID,0,VALID,95.7185,VALID,0,VALID,23.5771,VALID,53,VALID,0,
2009-01-08, 01:22:04,VALID,1009.4,VALID,0,VALID,95.7108,VALID,0,VALID,23.5966,VALID,49,VALID,0,
2009-01-08, 01:23:04,VALID,1009.4,VALID,0,VALID,95.7337,VALID,0,VALID,23.5576,VALID,49,VALID,0,
2009-01-08, 01:24:04,VALID,1009.43,VALID,0,VALID,95.7337,VALID,0,VALID,23.5576,VALID,49,VALID,0,
2009-01-08, 01:25:04,VALID,1009.46,VALID,0,VALID,95.7261,VALID,0,VALID,23.5558,VALID,49,VALID,0,
2009-01-08, 01:26:04,VALID,1009.45,VALID,0,VALID,95.7261,VALID,0.105969,VALID,23.5558,VALID,43,VALID,0,
2009-01-08, 01:27:04,VALID,1009.5,VALID,0,VALID,95.7261,VALID,0.105969,VALID,23.5558,VALID,43,VALID,0,
2009-01-08, 01:28:04,VALID,1009.5,VALID,0,VALID,95.7261,VALID,0.105969,VALID,23.5363,VALID,43,VALID,0,
2009-01-08, 01:29:04,VALID,1009.52,VALID,0,VALID,95.7337,VALID,0.105969,VALID,23.5363,VALID,43,VALID,0,
2009-01-08, 01:30:04,VALID,1009.54,VALID,0,VALID,95.7413,VALID,0.105969,VALID,23.5151,VALID,43,VALID,0,
2009-01-08, 01:31:04,VALID,1009.55,VALID,0,VALID,95.7413,VALID,0.105969,VALID,23.5363,VALID,43,VALID,0,
2009-01-08, 01:32:04,VALID,1009.56,VALID,0,VALID,95.7642,VALID,0,VALID,23.5363,VALID,11,VALID,0,
2009-01-08, 01:33:04,VALID,1009.58,VALID,0,VALID,95.7413,VALID,0.105969,VALID,23.5363,VALID,345,VALID,0,
2009-01-08, 01:34:04,VALID,1009.6,VALID,0,VALID,95.7566,VALID,0.105969,VALID,23.5753,VALID,345,VALID,0,
2009-01-08, 01:35:04,VALID,1009.61,VALID,0,VALID,95.7566,VALID,0,VALID,23.5576,VALID,345,VALID,0,
2009-01-08, 01:36:04,VALID,1009.64,VALID,0,VALID,95.7642,VALID,0.105969,VALID,23.5753,VALID,332,VALID,0,
2009-01-08, 01:37:04,VALID,1009.64,VALID,0,VALID,95.7566,VALID,0.105969,VALID,23.5558,VALID,329,VALID,0,
2009-01-08, 01:38:04,VALID,1009.67,VALID,0,VALID,95.7566,VALID,0.105969,VALID,23.5558,VALID,293,VALID,0,
2009-01-08, 01:39:04,VALID,1009.69,VALID,0,VALID,95.7413,VALID,0.105969,VALID,23.5558,VALID,281,VALID,0,
2009-01-08, 01:40:04,VALID,1009.71,VALID,0,VALID,95.7566,VALID,0,VALID,23.5576,VALID,244,VALID,0,
2009-01-08, 01:41:04,VALID,1009.7,VALID,0,VALID,95.7642,VALID,0,VALID,23.5771,VALID,234,VALID,0,
2009-01-08, 01:42:04,VALID,1009.73,VALID,0,VALID,95.749,VALID,0,VALID,23.5966,VALID,236,VALID,0,
2009-01-08, 01:43:04,VALID,1009.73,VALID,0,VALID,95.749,VALID,0,VALID,23.5771,VALID,233,VALID,0,
2009-01-08, 01:44:04,VALID,1009.74,VALID,0,VALID,95.749,VALID,0,VALID,23.5966,VALID,231,VALID,0,
2009-01-08, 01:45:04,VALID,1009.73,VALID,0,VALID,95.7566,VALID,0,VALID,23.6161,VALID,231,VALID,0,
2009-01-08, 01:46:04,VALID,1009.69,VALID,0,VALID,95.7566,VALID,0,VALID,23.6161,VALID,231,VALID,0,
2009-01-08, 01:47:04,VALID,1009.67,VALID,0,VALID,95.7566,VALID,0,VALID,23.5948,VALID,213,VALID,0,
2009-01-08, 01:48:04,VALID,1009.68,VALID,0,VALID,95.7566,VALID,0,VALID,23.5966,VALID,213,VALID,0,
2009-01-08, 01:49:04,VALID,1009.67,VALID,0,VALID,95.7718,VALID,0,VALID,23.6161,VALID,198,VALID,0,
2009-01-08, 01:50:04,VALID,1009.69,VALID,0,VALID,95.7718,VALID,0,VALID,23.6161,VALID,166,VALID,0,
2009-01-08, 01:51:04,VALID,1009.7,VALID,0,VALID,95.7718,VALID,0,VALID,23.5753,VALID,143,VALID,0,
2009-01-08, 01:52:04,VALID,1009.7,VALID,0,VALID,95.7795,VALID,0,VALID,23.5771,VALID,143,VALID,0,
2009-01-08, 01:53:04,VALID,1009.69,VALID,0,VALID,95.7718,VALID,0,VALID,23.6179,VALID,143,VALID,0,
2009-01-08, 01:54:04,VALID,1009.7,VALID,0,VALID,95.7871,VALID,0,VALID,23.5966,VALID,143,VALID,0,
2009-01-08, 01:55:04,VALID,1009.72,VALID,0,VALID,95.7642,VALID,0,VALID,23.5966,VALID,143,VALID,0,
2009-01-08, 01:56:04,VALID,1009.72,VALID,0,VALID,95.7642,VALID,0,VALID,23.5966,VALID,143,VALID,0,
2009-01-08, 01:57:04,VALID,1009.73,VALID,0,VALID,95.7718,VALID,0,VALID,23.5558,VALID,143,VALID,0,
2009-01-08, 01:58:04,VALID,1009.74,VALID,0,VALID,95.7566,VALID,0,VALID,23.5948,VALID,143,VALID,0,
2009-01-08, 01:59:04,VALID,1009.74,VALID,0,VALID,95.7642,VALID,0,VALID,23.5966,VALID,143,VALID,0,
2009-01-08, 02:00:04,VALID,1009.73,VALID,0,VALID,95.7642,VALID,0,VALID,23.6356,VALID,143,VALID,0,
2009-01-08, 02:01:04,VALID,1009.71,VALID,0,VALID,95.7642,VALID,0,VALID,23.6161,VALID,164,VALID,0,
2009-01-08, 02:02:04,VALID,1009.71,VALID,0,VALID,95.7795,VALID,0,VALID,23.6143,VALID,186,VALID,0,
2009-01-08, 02:03:04,VALID,1009.68,VALID,0,VALID,95.7642,VALID,0,VALID,23.6161,VALID,193,VALID,0,
2009-01-08, 02:04:04,VALID,1009.71,VALID,0,VALID,95.7795,VALID,0,VALID,23.5948,VALID,196,VALID,0,
2009-01-08, 02:05:04,VALID,1009.69,VALID,0,VALID,95.7795,VALID,0,VALID,23.6161,VALID,198,VALID,0,
2009-01-08, 02:06:04,VALID,1009.67,VALID,0,VALID,95.749,VALID,0,VALID,23.6161,VALID,197,VALID,0,
2009-01-08, 02:07:04,VALID,1009.66,VALID,0,VALID,95.7871,VALID,0,VALID,23.6356,VALID,193,VALID,0,
2009-01-08, 02:08:04,VALID,1009.65,VALID,0,VALID,95.7795,VALID,0,VALID,23.6161,VALID,186,VALID,0.00546875,
2009-01-08, 02:09:04,VALID,1009.68,VALID,0,VALID,95.7642,VALID,0,VALID,23.5948,VALID,177,VALID,0.497656,
2009-01-08, 02:10:04,VALID,1009.67,VALID,0,VALID,95.7718,VALID,0.105969,VALID,23.6143,VALID,175,VALID,0.419531,
2009-01-08, 02:11:04,VALID,1009.69,VALID,0,VALID,95.7795,VALID,0.105969,VALID,23.5948,VALID,175,VALID,0.454297,
2009-01-08, 02:12:04,VALID,1009.69,VALID,0,VALID,95.7795,VALID,0,VALID,23.6143,VALID,175,VALID,0.217969,
2009-01-08, 02:13:04,VALID,1009.72,VALID,0,VALID,95.7795,VALID,0.105969,VALID,23.5948,VALID,175,VALID,0.121094,
2009-01-08, 02:14:04,VALID,1009.71,VALID,0,VALID,95.7718,VALID,0.105969,VALID,23.5948,VALID,175,VALID,0.00390625,
2009-01-08, 02:15:04,VALID,1009.71,VALID,0,VALID,95.7795,VALID,0.105969,VALID,23.6143,VALID,175,VALID,0,
2009-01-08, 02:16:04,VALID,1009.7,VALID,0,VALID,95.7718,VALID,0.105969,VALID,23.6143,VALID,175,VALID,0,
2009-01-08, 02:17:04,VALID,1009.71,VALID,0,VALID,95.7871,VALID,0.105969,VALID,23.6143,VALID,175,VALID,0,
2009-01-08, 02:18:04,VALID,1009.69,VALID,0,VALID,95.7718,VALID,0.105969,VALID,23.593,VALID,175,VALID,0,
2009-01-08, 02:19:04,VALID,1009.71,VALID,0,VALID,95.81,VALID,0,VALID,23.6356,VALID,175,VALID,0,
2009-01-08, 02:20:04,VALID,1009.68,VALID,0,VALID,95.7718,VALID,0.105969,VALID,23.6338,VALID,175,VALID,0,
2009-01-08, 02:21:04,VALID,1009.69,VALID,0,VALID,95.7795,VALID,0.105969,VALID,23.6125,VALID,175,VALID,0,
2009-01-08, 02:22:04,VALID,1009.68,VALID,0,VALID,95.7795,VALID,0.105969,VALID,23.632,VALID,175,VALID,0,
2009-01-08, 02:23:04,VALID,1009.67,VALID,0,VALID,95.7871,VALID,0.105969,VALID,23.6727,VALID,175,VALID,0,
2009-01-08, 02:24:04,VALID,1009.65,VALID,0,VALID,95.7871,VALID,0.105969,VALID,23.6515,VALID,175,VALID,0,
2009-01-08, 02:25:04,VALID,1009.67,VALID,0,VALID,95.7642,VALID,0,VALID,23.6745,VALID,175,VALID,0,
2009-01-08, 02:26:04,VALID,1009.64,VALID,0,VALID,95.8023,VALID,0,VALID,23.6745,VALID,175,VALID,0,
2009-01-08, 02:27:04,VALID,1009.64,VALID,0,VALID,95.7871,VALID,0,VALID,23.655,VALID,175,VALID,0,
2009-01-08, 02:28:04,VALID,1009.62,VALID,0,VALID,95.7871,VALID,0,VALID,23.655,VALID,175,VALID,0,
2009-01-08, 02:29:04,VALID,1009.61,VALID,0,VALID,95.7871,VALID,0,VALID,23.655,VALID,175,VALID,0,
2009-01-08, 02:30:04,VALID,1009.62,VALID,0,VALID,95.7947,VALID,0,VALID,23.655,VALID,175,VALID,0,
2009-01-08, 02:31:04,VALID,1009.61,VALID,0,VALID,95.7718,VALID,0,VALID,23.6745,VALID,175,VALID,0,
2009-01-08, 02:32:04,VALID,1009.63,VALID,0,VALID,95.7947,VALID,0,VALID,23.6745,VALID,175,VALID,0,
2009-01-08, 02:33:04,VALID,1009.63,VALID,0,VALID,95.7871,VALID,0,VALID,23.6745,VALID,175,VALID,0,
2009-01-08, 02:34:04,VALID,1009.67,VALID,0,VALID,95.8023,VALID,0,VALID,23.694,VALID,175,VALID,0,
2009-01-08, 02:35:04,VALID,1009.66,VALID,0,VALID,95.8023,VALID,0,VALID,23.6745,VALID,175,VALID,0,
2009-01-08, 02:36:04,VALID,1009.68,VALID,0,VALID,95.7871,VALID,0,VALID,23.694,VALID,175,VALID,0,
2009-01-08, 02:37:04,VALID,1009.7,VALID,0,VALID,95.7871,VALID,0,VALID,23.7135,VALID,175,VALID,0,
2009-01-08, 02:38:04,VALID,1009.7,VALID,0,VALID,95.7947,VALID,0,VALID,23.6745,VALID,175,VALID,0,
2009-01-08, 02:39:04,VALID,1009.69,VALID,0,VALID,95.8023,VALID,0,VALID,23.694,VALID,174,VALID,0.330859,
2009-01-08, 02:40:04,VALID,1009.69,VALID,0,VALID,95.81,VALID,0,VALID,23.6532,VALID,137,VALID,0.166016,
2009-01-08, 02:41:04,VALID,1009.7,VALID,0,VALID,95.7947,VALID,0,VALID,23.655,VALID,19,VALID,0.347656,
2009-01-08, 02:42:04,VALID,1009.69,VALID,0,VALID,95.81,VALID,0,VALID,23.655,VALID,10,VALID,0.0429688,
2009-01-08, 02:43:04,VALID,1009.71,VALID,0,VALID,95.7795,VALID,0,VALID,23.655,VALID,10,VALID,0,
2009-01-08, 02:44:04,VALID,1009.71,VALID,0,VALID,95.8023,VALID,0,VALID,23.655,VALID,10,VALID,0,
2009-01-08, 02:45:04,VALID,1009.7,VALID,0,VALID,95.8252,VALID,0,VALID,23.6745,VALID,10,VALID,0,
2009-01-08, 02:46:04,VALID,1009.72,VALID,0,VALID,95.81,VALID,0,VALID,23.694,VALID,10,VALID,0,
2009-01-08, 02:47:04,VALID,1009.7,VALID,0,VALID,95.8023,VALID,0,VALID,23.6745,VALID,10,VALID,0,
2009-01-08, 02:48:04,VALID,1009.7,VALID,0,VALID,95.7947,VALID,0,VALID,23.6745,VALID,5,VALID,0.294141,
2009-01-08, 02:49:04,VALID,1009.71,VALID,0,VALID,95.8252,VALID,0,VALID,23.6745,VALID,5,VALID,0.263281,
2009-01-08, 02:50:04,VALID,1009.69,VALID,0,VALID,95.8023,VALID,0,VALID,23.655,VALID,5,VALID,0,
2009-01-08, 02:51:04,VALID,1009.69,VALID,0,VALID,95.7947,VALID,0,VALID,23.6745,VALID,5,VALID,0,
2009-01-08, 02:52:04,VALID,1009.69,VALID,0,VALID,95.8023,VALID,0,VALID,23.6745,VALID,5,VALID,0,
2009-01-08, 02:53:04,VALID,1009.65,VALID,0,VALID,95.81,VALID,0,VALID,23.6745,VALID,5,VALID,0,
2009-01-08, 02:54:04,VALID,1009.65,VALID,0,VALID,95.8176,VALID,0,VALID,23.6745,VALID,5,VALID,0,
2009-01-08, 02:55:04,VALID,1009.64,VALID,0,VALID,95.7947,VALID,0,VALID,23.694,VALID,5,VALID,0,
2009-01-08, 02:56:04,VALID,1009.63,VALID,0,VALID,95.81,VALID,0,VALID,23.694,VALID,5,VALID,0,
2009-01-08, 02:57:04,VALID,1009.63,VALID,0,VALID,95.8176,VALID,0,VALID,23.6745,VALID,5,VALID,0,
2009-01-08, 02:58:04,VALID,1009.6,VALID,0,VALID,95.8023,VALID,0,VALID,23.6745,VALID,5,VALID,0,
2009-01-08, 02:59:04,VALID,1009.6,VALID,0,VALID,95.8176,VALID,0,VALID,23.6745,VALID,5,VALID,0,
2009-01-08, 03:00:04,VALID,1009.6,VALID,0,VALID,95.8023,VALID,0,VALID,23.655,VALID,5,VALID,0,
2009-01-08, 03:01:04,VALID,1009.61,VALID,0,VALID,95.81,VALID,0,VALID,23.6745,VALID,5,VALID,0,
2009-01-08, 03:02:04,VALID,1009.62,VALID,0,VALID,95.8176,VALID,0,VALID,23.6763,VALID,5,VALID,0,
2009-01-08, 03:03:04,VALID,1009.65,VALID,0,VALID,95.81,VALID,0,VALID,23.6745,VALID,5,VALID,0,
2009-01-08, 03:04:04,VALID,1009.64,VALID,0,VALID,95.8023,VALID,0,VALID,23.694,VALID,5,VALID,0,
2009-01-08, 03:05:04,VALID,1009.65,VALID,0.5,VALID,95.8328,VALID,0,VALID,23.6745,VALID,5,VALID,0,
2009-01-08, 03:06:04,VALID,1009.65,VALID,0,VALID,95.8023,VALID,0,VALID,23.6745,VALID,5,VALID,0,
2009-01-08, 03:07:04,VALID,1009.65,VALID,0,VALID,95.8023,VALID,0,VALID,23.6727,VALID,5,VALID,0,
2009-01-08, 03:08:04,VALID,1009.65,VALID,0,VALID,95.8176,VALID,0,VALID,23.7135,VALID,5,VALID,0,
2009-01-08, 03:09:04,VALID,1009.65,VALID,0,VALID,95.8176,VALID,0,VALID,23.694,VALID,5,VALID,0,
2009-01-08, 03:10:04,VALID,1009.65,VALID,0,VALID,95.8176,VALID,0,VALID,23.7135,VALID,5,VALID,0,
2009-01-08, 03:11:04,VALID,1009.67,VALID,0,VALID,95.8176,VALID,0,VALID,23.7135,VALID,5,VALID,0,
2009-01-08, 03:12:04,VALID,1009.68,VALID,0,VALID,95.81,VALID,0,VALID,23.7135,VALID,5,VALID,0,
2009-01-08, 03:13:04,VALID,1009.68,VALID,0,VALID,95.8023,VALID,0,VALID,23.733,VALID,5,VALID,0,
2009-01-08, 03:14:04,VALID,1009.69,VALID,0,VALID,95.8176,VALID,0,VALID,23.7135,VALID,4,VALID,0.0113281,
2009-01-08, 03:15:04,VALID,1009.69,VALID,0,VALID,95.8176,VALID,0,VALID,23.7135,VALID,4,VALID,0.0132813,
2009-01-08, 03:16:04,VALID,1009.67,VALID,0,VALID,95.8252,VALID,0,VALID,23.7117,VALID,4,VALID,0,
2009-01-08, 03:17:04,VALID,1009.69,VALID,0,VALID,95.8023,VALID,0,VALID,23.733,VALID,358,VALID,0,
2009-01-08, 03:18:04,VALID,1009.68,VALID,0,VALID,95.81,VALID,0,VALID,23.733,VALID,342,VALID,0,
2009-01-08, 03:19:04,VALID,1009.68,VALID,0,VALID,95.81,VALID,0,VALID,23.733,VALID,327,VALID,0,
2009-01-08, 03:20:04,VALID,1009.69,VALID,0,VALID,95.8176,VALID,0,VALID,23.733,VALID,327,VALID,0,
2009-01-08, 03:21:04,VALID,1009.67,VALID,0,VALID,95.8176,VALID,0,VALID,23.7525,VALID,327,VALID,0,
2009-01-08, 03:22:04,VALID,1009.65,VALID,0,VALID,95.7947,VALID,0,VALID,23.733,VALID,313,VALID,0,
2009-01-08, 03:23:04,VALID,1009.65,VALID,0,VALID,95.8252,VALID,0,VALID,23.733,VALID,313,VALID,0,
2009-01-08, 03:24:04,VALID,1009.64,VALID,0,VALID,95.8252,VALID,0,VALID,23.7135,VALID,313,VALID,0,
2009-01-08, 03:25:04,VALID,1009.62,VALID,0,VALID,95.8176,VALID,0,VALID,23.7117,VALID,289,VALID,0,
2009-01-08, 03:26:04,VALID,1009.64,VALID,0,VALID,95.8252,VALID,0,VALID,23.7135,VALID,289,VALID,0,
2009-01-08, 03:27:04,VALID,1009.64,VALID,0,VALID,95.8252,VALID,0,VALID,23.7525,VALID,289,VALID,0,
2009-01-08, 03:28:04,VALID,1009.62,VALID,0,VALID,95.81,VALID,0,VALID,23.7312,VALID,289,VALID,0,
2009-01-08, 03:29:04,VALID,1009.63,VALID,0,VALID,95.7947,VALID,0,VALID,23.7312,VALID,289,VALID,0,
2009-01-08, 03:30:04,VALID,1009.62,VALID,0,VALID,95.81,VALID,0,VALID,23.7312,VALID,289,VALID,0,
2009-01-08, 03:31:04,VALID,1009.62,VALID,0,VALID,95.8023,VALID,0,VALID,23.733,VALID,351,VALID,0,
2009-01-08, 03:32:04,VALID,1009.61,VALID,0,VALID,95.81,VALID,0,VALID,23.7117,VALID,351,VALID,0,
2009-01-08, 03:33:04,VALID,1009.61,VALID,0,VALID,95.81,VALID,0,VALID,23.7117,VALID,351,VALID,0,
2009-01-08, 03:34:04,VALID,1009.62,VALID,0,VALID,95.81,VALID,0,VALID,23.7117,VALID,351,VALID,0,
2009-01-08, 03:35:05,VALID,1009.61,VALID,0,VALID,95.81,VALID,0,VALID,23.6922,VALID,350,VALID,0,
2009-01-08, 03:36:05,VALID,1009.62,VALID,0,VALID,95.8176,VALID,0,VALID,23.7117,VALID,341,VALID,0,
2009-01-08, 03:37:05,VALID,1009.62,VALID,0,VALID,95.8176,VALID,0.105969,VALID,23.7312,VALID,312,VALID,0,
2009-01-08, 03:38:05,VALID,1009.62,VALID,0,VALID,95.8176,VALID,0,VALID,23.7117,VALID,312,VALID,0,
2009-01-08, 03:39:05,VALID,1009.64,VALID,0,VALID,95.8023,VALID,0,VALID,23.6727,VALID,312,VALID,0,
2009-01-08, 03:40:05,VALID,1009.61,VALID,0,VALID,95.8176,VALID,0,VALID,23.7135,VALID,11,VALID,0,
2009-01-08, 03:41:05,VALID,1009.63,VALID,0,VALID,95.8328,VALID,0,VALID,23.7348,VALID,11,VALID,0,
2009-01-08, 03:42:05,VALID,1009.6,VALID,0,VALID,95.81,VALID,0,VALID,23.7135,VALID,11,VALID,0,
2009-01-08, 03:43:05,VALID,1009.57,VALID,0,VALID,95.8176,VALID,0,VALID,23.6922,VALID,11,VALID,0,
2009-01-08, 03:44:05,VALID,1009.56,VALID,0,VALID,95.81,VALID,0,VALID,23.694,VALID,11,VALID,0,
2009-01-08, 03:45:05,VALID,1009.54,VALID,0,VALID,95.8023,VALID,0,VALID,23.6745,VALID,11,VALID,0,
2009-01-08, 03:46:05,VALID,1009.53,VALID,0,VALID,95.8176,VALID,0,VALID,23.6356,VALID,11,VALID,0,
2009-01-08, 03:47:05,VALID,1009.53,VALID,0,VALID,95.8252,VALID,0,VALID,23.655,VALID,11,VALID,0,
2009-01-08, 03:48:05,VALID,1009.51,VALID,0,VALID,95.8023,VALID,0,VALID,23.655,VALID,55,VALID,0,
2009-01-08, 03:49:05,VALID,1009.51,VALID,0,VALID,95.8328,VALID,0,VALID,23.6745,VALID,55,VALID,0,
2009-01-08, 03:50:05,VALID,1009.48,VALID,0,VALID,95.8328,VALID,0,VALID,23.694,VALID,55,VALID,0,
2009-01-08, 03:51:05,VALID,1009.5,VALID,0,VALID,95.8023,VALID,0,VALID,23.6745,VALID,55,VALID,0,
2009-01-08, 03:52:05,VALID,1009.51,VALID,0,VALID,95.81,VALID,0,VALID,23.6745,VALID,55,VALID,0,
2009-01-08, 03:53:05,VALID,1009.51,VALID,0,VALID,95.8176,VALID,0,VALID,23.6763,VALID,55,VALID,0,
2009-01-08, 03:54:05,VALID,1009.52,VALID,0,VALID,95.8176,VALID,0,VALID,23.6763,VALID,55,VALID,0,
2009-01-08, 03:55:05,VALID,1009.51,VALID,0,VALID,95.8176,VALID,0.105969,VALID,23.6338,VALID,55,VALID,0,
2009-01-08, 03:56:05,VALID,1009.52,VALID,0,VALID,95.81,VALID,0.105969,VALID,23.6532,VALID,55,VALID,0,
2009-01-08, 03:57:05,VALID,1009.49,VALID,0,VALID,95.81,VALID,0.105969,VALID,23.6532,VALID,55,VALID,0,